Weather History for K2I0 - October, 2012

Change the Weather History Date:

Tuesday, October 23, 2012

  Actual Average (KOWB) Record (KOWB)
Temperature  
Mean Temperature 70 °F -  
Max Temperature 81 °F 67 °F 89 °F (1963)
Min Temperature 59 °F 44 °F 26 °F (1952)
Cooling Degree Days 5    
Growing Degree Days 20 (Base 50)    
Moisture  
Dew Point 53 °F    
Average Humidity 57    
Maximum Humidity 75    
Minimum Humidity 38    
Precipitation  
Precipitation 0.00 in - - ()
Sea Level Pressure  
Sea Level Pressure 30.04 in    
Wind  
Wind Speed 7 mph ()    
Max Wind Speed 15 mph    
Max Gust Speed 21 mph    
Visibility 10.0 miles    
Events      
Averages and records for this station are not official NWS values.
T = Trace of Precipitation, MM = Missing Value Source: Averaged Metar Reports

Daily Weather History Graph

Daily Weather History Graph

Search for Another Location

Airport or City:

Trip Planner

Search our weather history database for the weather conditions in past years. The results will help you decide how hot, cold, wet, or windy it might be!

Date:

Astronomy

Oct. 23, 2012 Rise Set
Actual Time 7:05 AM CDT 6:01 PM CDT
Civil Twilight 6:39 AM CDT 6:27 PM CDT
Nautical Twilight 6:08 AM CDT 6:58 PM CDT
Astronomical Twilight 5:38 AM CDT 7:28 PM CDT
Moon 2:38 PM CDT (10/23) 1:04 AM CDT (10/23)
Length of Visible Light 11h 48m
Length of Day
10h 55m
Waxing Gibbous, 67% of the Moon is Illuminated
Oct 23
Waxing Gibbous
Oct 29
Full
Nov 6
Last Quarter
Nov 13
New
Nov 20
First Quarter

Hourly Weather History & Observations

Time (CDT) Temp. Heat Index Dew Point Humidity Pressure Visibility Wind Dir Wind Speed Gust Speed Precip Events Conditions
12:15 AM 63.9 °F - 53.8 °F 70% 30.03 in 10.0 mi SSW 8.1 mph - N/A   Clear
12:35 AM 64.2 °F - 53.6 °F 68% 30.03 in 10.0 mi SSW 9.2 mph - N/A   Clear
12:55 AM 63.9 °F - 53.2 °F 68% 30.03 in 10.0 mi SSW 9.2 mph - N/A   Clear
1:15 AM 63.7 °F - 52.9 °F 68% 30.03 in 10.0 mi SSW 6.9 mph - N/A   Clear
1:35 AM 63.1 °F - 52.3 °F 68% 30.03 in 10.0 mi South 3.5 mph - N/A   Clear
2:15 AM 63.0 °F - 51.8 °F 67% 30.03 in 10.0 mi SSW 5.8 mph - N/A   Clear
2:35 AM 63.3 °F - 51.3 °F 65% 30.03 in 10.0 mi SSW 5.8 mph - N/A   Clear
2:55 AM 63.0 °F - 51.3 °F 66% 30.03 in 10.0 mi SSW 6.9 mph - N/A   Clear
3:15 AM 63.1 °F - 50.9 °F 64% 30.03 in 10.0 mi SSW 4.6 mph - N/A   Clear
3:35 AM 63.0 °F - 50.7 °F 64% 30.03 in 10.0 mi SSW 3.5 mph - N/A   Clear
3:55 AM 62.2 °F - 50.5 °F 65% 30.04 in 10.0 mi SSW 4.6 mph - N/A   Clear
4:15 AM 62.2 °F - 50.7 °F 66% 30.04 in 10.0 mi SSW 4.6 mph - N/A   Clear
4:35 AM 62.1 °F - 50.9 °F 67% 30.05 in 10.0 mi SSW 4.6 mph - N/A   Clear
4:55 AM 62.2 °F - 50.5 °F 65% 30.05 in 10.0 mi South 3.5 mph - N/A   Clear
5:15 AM 61.0 °F - 50.9 °F 69% 30.05 in 10.0 mi Calm Calm - N/A   Clear
5:35 AM 62.2 °F - 50.9 °F 66% 30.06 in 10.0 mi SSW 4.6 mph - N/A   Clear
5:55 AM 61.3 °F - 51.3 °F 69% 30.06 in 10.0 mi SSW 4.6 mph - N/A   Clear
6:35 AM 60.4 °F - 51.3 °F 72% 30.07 in 10.0 mi South 5.8 mph - N/A   Clear
6:55 AM 59.9 °F - 51.8 °F 75% 30.07 in 10.0 mi SSW 6.9 mph - N/A   Clear
7:15 AM 60.3 °F - 51.8 °F 74% 30.07 in 10.0 mi SSW 5.8 mph - N/A   Clear
7:35 AM 60.4 °F - 52.2 °F 74% 30.07 in 10.0 mi SSW 6.9 mph - N/A   Clear
7:55 AM 62.1 °F - 52.9 °F 72% 30.08 in 10.0 mi SW 6.9 mph - N/A   Clear
8:15 AM 63.5 °F - 53.6 °F 70% 30.09 in 10.0 mi SW 5.8 mph - N/A   Clear
8:35 AM 65.3 °F - 54.5 °F 68% 30.09 in 10.0 mi SW 9.2 mph - N/A   Clear
8:55 AM 66.9 °F - 54.9 °F 65% 30.09 in 10.0 mi SSW 6.9 mph - N/A   Clear
9:15 AM 68.5 °F - 55.6 °F 63% 30.10 in 10.0 mi SW 9.2 mph - N/A   Clear
9:35 AM 70.7 °F - 55.9 °F 59% 30.10 in 10.0 mi SSW 8.1 mph - N/A   Clear
9:55 AM 70.9 °F - 56.1 °F 59% 30.10 in 10.0 mi SSW 5.8 mph - N/A   Clear
10:15 AM 72.7 °F - 56.8 °F 57% 30.10 in 10.0 mi SSW 5.8 mph - N/A   Clear
10:55 AM 75.6 °F - 56.3 °F 51% 30.09 in 10.0 mi SW 12.7 mph 16.1 mph N/A   Clear
11:15 AM 76.8 °F - 56.8 °F 50% 30.09 in 10.0 mi WSW 12.7 mph - N/A   Clear
11:35 AM 77.2 °F - 57.0 °F 50% 30.09 in 10.0 mi SW 13.8 mph 17.3 mph N/A   Clear
12:15 PM 77.9 °F - 56.3 °F 47% 30.08 in 10.0 mi WSW 13.8 mph - N/A   Clear
12:35 PM 79.3 °F - 56.5 °F 45% 30.07 in 10.0 mi SSW 8.1 mph 20.7 mph N/A   Clear
12:55 PM 80.1 °F 80.2 °F 55.9 °F 43% 30.07 in 10.0 mi WSW 11.5 mph - N/A   Clear
1:15 PM 80.4 °F 80.5 °F 55.9 °F 43% 30.06 in 10.0 mi South 9.2 mph - N/A   Clear
1:35 PM 81.0 °F 80.7 °F 55.4 °F 41% 30.05 in 10.0 mi SW 11.5 mph 19.6 mph N/A   Clear
1:55 PM 81.3 °F 80.9 °F 55.0 °F 40% 30.04 in 10.0 mi WSW 13.8 mph 20.7 mph N/A   Clear
2:15 PM 81.5 °F 80.9 °F 54.5 °F 39% 30.03 in 10.0 mi SSW 12.7 mph 16.1 mph N/A   Clear
2:35 PM 81.7 °F 81.1 °F 54.3 °F 39% 30.02 in 10.0 mi SSW 11.5 mph 17.3 mph N/A   Clear
2:55 PM 80.8 °F 80.3 °F 53.1 °F 38% 30.02 in 10.0 mi SW 12.7 mph 17.3 mph N/A   Clear
3:15 PM 81.0 °F 80.5 °F 53.8 °F 39% 30.01 in 10.0 mi SSW 13.8 mph - N/A   Clear
3:35 PM 81.0 °F 80.5 °F 53.8 °F 39% 30.01 in 10.0 mi SW 10.4 mph 19.6 mph N/A   Clear
3:55 PM 81.5 °F 80.9 °F 54.1 °F 39% 30.00 in 10.0 mi South 15.0 mph 19.6 mph N/A   Clear
4:15 PM 80.8 °F 80.4 °F 53.8 °F 39% 30.00 in 10.0 mi SSW 13.8 mph - N/A   Clear
4:35 PM 79.9 °F - 53.4 °F 40% 29.99 in 10.0 mi SSW 9.2 mph 18.4 mph N/A   Clear
4:55 PM 79.7 °F - 53.4 °F 40% 29.99 in 10.0 mi SSW 8.1 mph - N/A   Clear
5:15 PM 79.2 °F - 51.6 °F 38% 30.00 in 10.0 mi SSW 8.1 mph - N/A   Clear
5:35 PM 77.5 °F - 51.1 °F 40% 30.00 in 10.0 mi SSW 6.9 mph - N/A   Clear
5:55 PM 76.3 °F - 51.8 °F 42% 30.00 in 10.0 mi SSW 6.9 mph - N/A   Clear
6:15 PM 75.0 °F - 52.3 °F 45% 30.00 in 10.0 mi South 5.8 mph - N/A   Clear
6:35 PM 73.9 °F - 52.3 °F 47% 30.00 in 10.0 mi South 4.6 mph - N/A   Clear
6:55 PM 73.9 °F - 52.0 °F 46% 30.01 in 10.0 mi SSW 4.6 mph - N/A   Clear
7:15 PM 70.7 °F - 52.7 °F 53% 30.01 in 10.0 mi South 3.5 mph - N/A   Clear
7:35 PM 70.7 °F - 52.5 °F 52% 30.01 in 10.0 mi South 4.6 mph - N/A   Clear
7:55 PM 71.1 °F - 52.3 °F 52% 30.02 in 10.0 mi South 3.5 mph - N/A   Clear
8:15 PM 69.6 °F - 52.5 °F 54% 30.02 in 10.0 mi South 5.8 mph - N/A   Clear
8:35 PM 68.5 °F - 52.7 °F 57% 30.02 in 10.0 mi South 5.8 mph - N/A   Clear
8:55 PM 68.7 °F - 52.3 °F 56% 30.03 in 10.0 mi South 5.8 mph - N/A   Clear
9:15 PM 68.5 °F - 52.5 °F 57% 30.03 in 10.0 mi South 5.8 mph - N/A   Clear
9:35 PM 67.8 °F - 52.9 °F 59% 30.03 in 10.0 mi South 5.8 mph - N/A   Clear
9:55 PM 67.1 °F - 53.2 °F 61% 30.03 in 10.0 mi South 5.8 mph - N/A   Clear
10:15 PM 66.7 °F - 53.4 °F 62% 30.04 in 10.0 mi South 4.6 mph - N/A   Clear
10:35 PM 63.7 °F - 53.6 °F 70% 30.04 in 10.0 mi South 5.8 mph - N/A   Clear
10:55 PM 65.7 °F - 53.6 °F 65% 30.04 in 10.0 mi South 4.6 mph - N/A   Clear
11:15 PM 64.6 °F - 53.2 °F 67% 30.04 in 10.0 mi South 3.5 mph - N/A   Clear
11:35 PM 63.5 °F - 53.6 °F 70% 30.05 in 10.0 mi SSW 3.5 mph - N/A   Clear
11:55 PM 62.6 °F - 53.4 °F 72% 30.05 in 10.0 mi SSW 4.6 mph - N/A   Clear